Terminal Aerodrome Forecast
Issued by NWS Chicago, IL

Home | Current Version | Previous Version | Text Only | Print | Product List | Glossary Off
Versions: 1 2 3 4 5 6 7 8 9 10 11 12 13 14 15 16 17 18 19 20 21 22 23 24 25 26 27 28 29 30 31 32 33 34

000
FTUS43 KLOT 290900 AAA
TAFRFD
TAF AMD
KRFD 290900Z 2909/3006 17013G18KT P6SM BKN150
     FM291130 19015G25KT P6SM BKN150
     FM291400 20023G35KT P6SM OVC080
      TEMPO 2914/2916 2SM -SNPL OVC025
     FM291600 20023G35KT 4SM -SHRA OVC025
     FM291830 22020G32KT P6SM OVC030
      TEMPO 2922/2924 5SM -SHRA
     FM300000 29012G23KT P6SM BKN025=

USA.gov is the U.S. government's official web portal to all federal, state and local government web resources and services.